Location: Cactus School
(34.5700°N, 118.0931°W)
Time: 01:21:42
(UTC-07:00)

Vanguard 1 Rocket - Pass Details

Date: 17 April 2024
Orbit: 650 x 4220 km, 34.3° (Epoch: 27 May)

Event Time Altitude Azimuth Distance (km) Brightness Sun altitude
Rises 04:19:06 0° 274° (W) 6,349 - -23.2°
Reaches altitude 10° 04:24:38 10° 259° (WSW) 5,906 - -22.3°
Exits shadow 04:36:28 20° 221° (SW) 5,967 10.9 -20.2°
Maximum altitude 04:36:55 20° 220° (SW) 5,992 11.0 -20.1°
Drops below altitude 10° 04:52:23 10° 181° (S) 7,399 11.7 -17.3°
Sets 05:01:15 0° 167° (SSE) 8,400 12.2 -15.6°
